QPF
0.00 0.00 0.00 0.00 0.00 0.00 0.00 0.00 0.00 0.00 0.00 0.00 0.00 0.00 0.00 0.00 0.01 0.00 0.00 0.01 0.01 0.01 0.00 0.00 0.00 0.00 0.00 0.00 0.00 0.00 0.00 0.00 0.00 0.00 0.00 0.00 0.00 0.00 0.00 0.00 0.00 0.00 0.00
0.00 0.00 0.01 0.01 0.00 0.01 0.01 0.01 0.00 0.00 0.00 0.00 0.00 0.00 0.00 0.00 0.00 0.01 0.02 0.02 0.01 0.00 0.00 0.00 0.00 0.00 0.00 0.00 0.00 0.00 0.00 0.00 0.00 0.00 0.00 0.00 0.00 0.00 0.00 0.00 0.00 0.00 0.00
0.02 0.00 0.00 0.00 0.00 0.01 0.01 0.00 0.00 0.00 0.00 0.00 0.00 0.00 0.00 0.00 0.01 0.01 0.00 0.00 0.00 0.00 0.00 0.00 0.00 0.00 0.00 0.00 0.00 0.00 0.00 0.00 0.00 0.00 0.00 0.00 0.00 0.00 0.00 0.00 0.00 0.00 0.00
0.00 0.00 0.00 0.00 0.00 0.00 0.00 0.00 0.00 0.00 0.00 0.00 0.00 0.00 0.00 0.00 0.00 0.00 0.00 0.00 0.00 0.00 0.00 0.00 0.00 0.00 0.00 0.00 0.00 0.00 0.00 0.00 0.00 0.00 0.00 0.01 0.00 0.00 0.00 0.00 0.00 0.00 0.00
0.00 0.00 0.00 0.00 0.00 0.00 0.00 0.00 0.00 0.00 0.00 0.00 0.00 0.00 0.00 0.00 0.00 0.00 0.00 0.00 0.00 0.00 0.00 0.00 0.00 0.00 0.00 0.00 0.00 0.00 0.01 0.01 0.01 0.01 0.01 0.02 0.02 0.00 0.00 0.00 0.00 0.00 0.00
0.00 0.00 0.00 0.00 0.00 0.00 0.00 0.00 0.00 0.00 0.00 0.00 0.00 0.00 0.00 0.00 0.00 0.00 0.00 0.00 0.00 0.00 0.00 0.00 0.00 0.00 0.00 0.00 0.00 0.00 0.01 0.03 0.04 0.05 0.04 0.03 0.03 0.01 0.00 0.00 0.00 0.00 0.00
0.00 0.00 0.00 0.00 0.00 0.00 0.00 0.00 0.00 0.00 0.00 0.00 0.00 0.00 0.00 0.00 0.00 0.00 0.00 0.00 0.00 0.00 0.00 0.00 0.00 0.00 0.00 0.00 0.00 0.00 0.01 0.02 0.08 0.25 0.28 0.20 0.13 0.04 0.02 0.00 0.00 0.00 0.00
0.00 0.00 0.00 0.00 0.00 0.00 0.00 0.00 0.00 0.00 0.00 0.00 0.00 0.00 0.00 0.00 0.00 0.00 0.00 0.00 0.00 0.00 0.00 0.00 0.00 0.00 0.00 0.01 0.01 0.00 0.01 0.07 0.17 0.18 0.11 0.03 0.01 0.00 0.01 0.00 0.00 0.00 0.00
0.00 0.00 0.00 0.00 0.00 0.00 0.00 0.00 0.00 0.00 0.00 0.00 0.00 0.00 0.00 0.00 0.00 0.00 0.00 0.00 0.00 0.00 0.00 0.00 0.00 0.00 0.00 0.02 0.01 0.00 0.01 0.02 0.00 0.00 0.00 0.00 0.00 0.00 0.00 0.00 0.00 0.00 0.00
0.00 0.00 0.00 0.00 0.00 0.00 0.00 0.00 0.00 0.00 0.00 0.00 0.00 0.00 0.00 0.00 0.00 0.00 0.00 0.00 0.00 0.00 0.00 0.00 0.01 0.00 0.00 0.01 0.04 0.05 0.04 0.02 0.01 0.01 0.02 0.02 0.00 0.00 0.00 0.00 0.00 0.00 0.00
0.00 0.00 0.00 0.00 0.00 0.00 0.00 0.00 0.00 0.00 0.00 0.00 0.00 0.00 0.00 0.00 0.00 0.00 0.00 0.00 0.00 0.00 0.00 0.00 0.00 0.00 0.01 0.03 0.08 0.09 0.05 0.02 0.01 0.01 0.00 0.00 0.00 0.00 0.00 0.00 0.01 0.02 0.02
0.00 0.00 0.00 0.00 0.00 0.00 0.00 0.00 0.00 0.00 0.00 0.00 0.00 0.00 0.00 0.00 0.00 0.00 0.00 0.00 0.00 0.00 0.00 0.00 0.00 0.01 0.02 0.06 0.11 0.07 0.03 0.01 0.01 0.00 0.00 0.00 0.00 0.00 0.00 0.01 0.02 0.05 0.05
0.00 0.00 0.00 0.00 0.00 0.00 0.00 0.00 0.00 0.00 0.00 0.00 0.00 0.00 0.00 0.00 0.00 0.00 0.00 0.00 0.00 0.01 0.01 0.02 0.03 0.11 0.15 0.14 0.12 0.04 0.01 0.00 0.00 0.00 0.00 0.00 0.00 0.00 0.03 0.10 0.17 0.22 0.16
0.00 0.00 0.00 0.00 0.00 0.00 0.00 0.00 0.00 0.00 0.00 0.00 0.00 0.00 0.00 0.00 0.00 0.00 0.00 0.00 0.00 0.02 0.04 0.01 0.04 0.14 0.17 0.14 0.06 0.01 0.00 0.00 0.00 0.00 0.00 0.00 0.00 0.01 0.03 0.24 0.22 0.12 0.04
0.00 0.00 0.00 0.00 0.00 0.00 0.00 0.00 0.00 0.00 0.00 0.00 0.00 0.00 0.00 0.00 0.00 0.00 0.01 0.01 0.01 0.03 0.00 0.00 0.01 0.03 0.09 0.11 0.03 0.00 0.00 0.00 0.00 0.00 0.00 0.00 0.00 0.01 0.05 0.14 0.18 0.10 0.04
0.00 0.00 0.00 0.00 0.00 0.00 0.00 0.00 0.00 0.00 0.00 0.00 0.00 0.00 0.00 0.00 0.00 0.00 0.02 0.03 0.01 0.03 0.01 0.00 0.00 0.05 0.10 0.11 0.01 0.00 0.00 0.00 0.00 0.00 0.02 0.01 0.00 0.03 0.15 0.25 0.30 0.14 0.29
0.00 0.00 0.00 0.00 0.00 0.00 0.00 0.00 0.00 0.00 0.00 0.00 0.00 0.00 0.00 0.00 0.00 0.00 0.01 0.02 0.02 0.03 0.01 0.01 0.04 0.10 0.09 0.01 0.00 0.00 0.00 0.00 0.00 0.00 0.02 0.00 0.00 0.02 0.11 0.16 0.18 0.10 0.13
0.00 0.00 0.00 0.00 0.00 0.00 0.00 0.00 0.00 0.00 0.00 0.00 0.00 0.00 0.00 0.00 0.00 0.00 0.00 0.01 0.05 0.10 0.06 0.06 0.08 0.05 0.04 0.00 0.00 0.00 0.00 0.00 0.00 0.00 0.01 0.00 0.01 0.01 0.04 0.10 0.07 0.06 0.07
0.00 0.00 0.00 0.00 0.00 0.00 0.00 0.00 0.00 0.00 0.00 0.00 0.00 0.00 0.00 0.00 0.00 0.00 0.01 0.01 0.07 0.08 0.07 0.07 0.08 0.01 0.00 0.00 0.00 0.00 0.00 0.00 0.00 0.00 0.00 0.00 0.01 0.01 0.02 0.10 0.12 0.08 0.06
0.00 0.00 0.00 0.00 0.00 0.00 0.00 0.00 0.00 0.00 0.00 0.00 0.00 0.00 0.00 0.00 0.00 0.00 0.00 0.04 0.08 0.03 0.04 0.02 0.01 0.00 0.00 0.00 0.00 0.00 0.00 0.00 0.00 0.00 0.00 0.00 0.00 0.00 0.02 0.04 0.16 0.15 0.07
0.00 0.00 0.00 0.00 0.00 0.00 0.00 0.00 0.00 0.00 0.00 0.00 0.00 0.00 0.00 0.00 0.00 0.00 0.02 0.03 0.01 0.01 0.01 0.00 0.00 0.00 0.00 0.00 0.00 0.00 0.00 0.00 0.00 0.00 0.00 0.00 0.00 0.00 0.01 0.02 0.05 0.11 0.14
0.00 0.00 0.00 0.00 0.00 0.00 0.00 0.00 0.00 0.00 0.00 0.00 0.00 0.00 0.00 0.00 0.00 0.00 0.01 0.01 0.00 0.00 0.00 0.00 0.00 0.00 0.00 0.00 0.00 0.00 0.00 0.00 0.00 0.00 0.00 0.00 0.00 0.00 0.00 0.00 0.01 0.03 0.02
0.00 0.00 0.00 0.00 0.00 0.00 0.00 0.00 0.00 0.00 0.00 0.00 0.00 0.00 0.00 0.00 0.00 0.00 0.00 0.00 0.00 0.00 0.00 0.00 0.00 0.00 0.00 0.00 0.00 0.00 0.00 0.00 0.00 0.00 0.00 0.00 0.00 0.00 0.00 0.00 0.00 0.01 0.01
0.00 0.00 0.00 0.00 0.00 0.00 0.00 0.00 0.00 0.00 0.00 0.00 0.00 0.00 0.00 0.00 0.00 0.00 0.00 0.00 0.00 0.00 0.00 0.00 0.00 0.00 0.00 0.00 0.00 0.00 0.00 0.00 0.00 0.00 0.00 0.00 0.00 0.00 0.00 0.00 0.00 0.00 0.00
0.00 0.00 0.00 0.00 0.00 0.00 0.00 0.00 0.00 0.00 0.00 0.00 0.00 0.00 0.00 0.00 0.00 0.00 0.00 0.00 0.00 0.00 0.00 0.00 0.00 0.00 0.00 0.00 0.00 0.00 0.00 0.00 0.00 0.00 0.00 0.00 0.00 0.00 0.00 0.00 0.00 0.00 0.00
0.00 0.00 0.00 0.00 0.00 0.00 0.00 0.00 0.00 0.00 0.00 0.00 0.00 0.00 0.00 0.00 0.00 0.00 0.00 0.00 0.00 0.00 0.00 0.00 0.00 0.00 0.00 0.00 0.00 0.00 0.00 0.00 0.00 0.00 0.00 0.00 0.00 0.00 0.00 0.00 0.00 0.00 0.00
MSLP
1013.85 1014.21 1014.66 1014.97 1015.35 1015.95 1016.22 1016.46 1016.54 1016.33 1016.68 1016.77 1016.66 1016.59 1016.40 1016.47 1016.08 1016.03 1016.21 1016.40 1016.30 1016.09 1015.74 1015.82 1015.83 1015.64 1015.50 1015.41 1015.21 1014.88 1014.38 1013.89 1012.64 1011.75 1011.53 1011.05 1010.67 1010.46 1010.02 1009.61 1009.40 1008.90 1008.43
1013.91 1014.38 1014.72 1015.20 1015.64 1016.10 1016.37 1016.54 1016.60 1016.54 1016.55 1016.68 1016.68 1016.60 1016.36 1016.12 1015.82 1015.84 1015.96 1016.07 1015.90 1015.68 1015.60 1015.65 1015.29 1015.17 1015.11 1014.78 1014.40 1013.84 1013.39 1013.01 1012.50 1011.09 1011.03 1010.55 1010.12 1009.86 1009.65 1009.18 1008.78 1008.23 1007.73
1014.13 1014.58 1015.06 1015.58 1015.92 1016.23 1016.44 1016.52 1016.65 1016.52 1016.41 1016.61 1016.57 1016.39 1016.14 1015.86 1015.73 1015.70 1015.99 1015.87 1015.64 1015.45 1015.36 1015.16 1015.01 1014.86 1014.42 1013.95 1013.47 1013.07 1012.71 1012.25 1011.81 1010.91 1010.15 1010.16 1009.54 1009.36 1008.97 1008.65 1008.12 1007.53 1007.13
1014.39 1015.04 1015.53 1015.84 1016.04 1016.20 1016.36 1016.24 1016.23 1016.43 1016.55 1016.44 1016.38 1016.29 1015.92 1015.80 1015.86 1015.98 1015.98 1015.71 1015.42 1015.17 1014.95 1014.85 1014.56 1014.20 1013.75 1013.22 1012.81 1012.40 1011.86 1011.38 1010.96 1010.37 1009.67 1009.57 1009.19 1008.79 1008.61 1008.09 1007.38 1006.89 1006.36
1014.96 1015.38 1015.74 1016.01 1016.16 1016.36 1016.57 1016.57 1016.41 1016.26 1016.34 1016.55 1016.58 1016.21 1016.04 1016.00 1015.87 1015.82 1015.57 1015.17 1015.01 1014.89 1014.65 1014.38 1014.03 1013.65 1013.12 1012.66 1012.10 1011.48 1011.23 1010.76 1010.32 1009.73 1009.21 1009.06 1008.83 1008.39 1007.88 1007.31 1006.97 1006.46 1005.91
1015.37 1015.82 1016.07 1016.46 1016.79 1016.83 1016.63 1016.47 1016.56 1016.76 1016.89 1016.62 1016.19 1016.05 1015.95 1015.77 1015.53 1015.37 1015.37 1015.26 1015.15 1014.86 1014.43 1013.91 1013.50 1012.79 1012.03 1011.57 1011.28 1011.07 1010.91 1010.29 1009.70 1009.16 1008.58 1008.22 1007.79 1007.72 1007.13 1006.94 1006.48 1006.11 1005.25
1016.12 1016.66 1016.85 1016.89 1016.85 1016.83 1016.78 1016.79 1016.85 1016.74 1016.49 1016.28 1016.08 1015.99 1015.93 1015.79 1015.70 1015.50 1015.50 1015.43 1015.21 1014.70 1014.02 1013.29 1012.51 1012.13 1011.75 1011.29 1010.88 1010.51 1010.08 1009.73 1009.42 1009.03 1008.08 1007.34 1007.15 1006.85 1006.63 1006.35 1005.98 1005.60 1004.95
1016.58 1016.89 1016.86 1016.91 1017.06 1017.09 1017.03 1017.08 1017.00 1016.78 1016.61 1016.46 1016.30 1016.25 1016.26 1016.25 1016.25 1016.20 1015.92 1015.42 1014.65 1013.90 1013.41 1012.97 1012.57 1012.02 1011.56 1011.34 1010.83 1010.12 1009.80 1009.35 1009.06 1008.62 1008.20 1007.46 1007.13 1006.68 1006.50 1005.95 1005.37 1004.74 1004.24
1017.04 1017.36 1017.51 1017.48 1017.39 1017.36 1017.20 1017.17 1017.16 1016.94 1016.76 1016.73 1016.87 1016.90 1016.88 1016.73 1016.46 1015.95 1015.51 1015.27 1014.81 1014.04 1013.38 1012.83 1012.54 1011.90 1011.20 1011.04 1010.70 1010.19 1009.51 1008.64 1008.44 1008.11 1007.69 1007.23 1006.77 1006.27 1005.81 1005.61 1004.72 1004.06 1002.86
1017.81 1017.90 1017.91 1017.70 1017.64 1017.70 1017.84 1017.66 1017.59 1017.60 1017.58 1017.41 1017.13 1016.95 1016.76 1016.67 1016.49 1016.26 1016.15 1015.79 1015.28 1014.57 1013.71 1012.75 1012.23 1011.90 1011.37 1011.05 1010.78 1010.39 1009.71 1008.86 1008.35 1007.50 1007.02 1006.45 1006.02 1005.39 1004.81 1004.64 1003.83 1002.88 1001.96
1018.15 1018.27 1018.41 1018.45 1018.39 1018.26 1018.12 1018.05 1017.95 1017.71 1017.48 1017.38 1017.32 1017.31 1017.26 1017.22 1016.93 1016.75 1016.56 1016.17 1015.42 1014.52 1013.60 1012.65 1011.89 1011.50 1011.15 1010.71 1010.41 1010.16 1009.74 1008.93 1008.25 1007.59 1006.86 1006.08 1005.40 1004.71 1003.95 1003.28 1002.61 1001.82 1000.63
1018.87 1018.99 1018.93 1018.79 1018.65 1018.56 1018.41 1018.34 1018.10 1017.92 1018.00 1018.04 1017.94 1017.80 1017.81 1017.64 1017.25 1016.84 1016.46 1015.94 1015.24 1014.52 1013.53 1012.81 1012.25 1011.73 1010.58 1010.36 1010.14 1009.90 1009.40 1008.77 1008.05 1007.41 1006.72 1005.91 1005.19 1004.36 1003.31 1002.16 1001.13 1000.17 999.09
1019.16 1019.12 1019.20 1019.10 1018.95 1018.93 1018.88 1018.83 1018.73 1018.46 1018.58 1018.67 1018.49 1018.22 1017.85 1017.72 1017.33 1016.87 1016.33 1015.65 1014.80 1014.20 1013.55 1013.03 1012.58 1012.19 1011.34 1010.65 1010.09 1010.17 1009.80 1009.25 1008.57 1007.87 1007.26 1006.41 1005.61 1004.46 1003.06 1001.38 999.84 998.13 996.92
1019.25 1019.33 1019.44 1019.28 1019.26 1019.32 1019.27 1019.30 1019.33 1019.35 1019.28 1019.21 1018.95 1018.74 1018.41 1017.98 1017.56 1017.19 1016.61 1015.93 1015.04 1014.38 1013.79 1013.20 1012.92 1012.58 1012.15 1011.45 1010.70 1010.63 1010.29 1009.80 1009.15 1008.50 1007.61 1006.61 1005.52 1004.10 1002.70 1001.02 999.15 997.40 995.86
1019.57 1019.61 1019.50 1019.48 1019.57 1019.67 1019.71 1019.69 1019.69 1019.94 1019.96 1019.90 1019.85 1019.78 1019.42 1018.71 1018.43 1018.19 1017.57 1016.74 1015.93 1015.11 1014.29 1013.94 1013.63 1013.31 1012.62 1011.84 1011.58 1011.27 1010.66 1009.97 1009.27 1008.82 1007.88 1006.80 1005.65 1004.33 1002.81 1000.85 998.78 997.09 995.77
1019.73 1019.79 1019.84 1019.86 1019.98 1019.94 1019.87 1019.87 1020.07 1020.25 1020.28 1020.36 1020.34 1020.24 1020.09 1019.72 1019.10 1018.32 1017.52 1016.75 1015.95 1015.53 1015.08 1014.78 1014.46 1014.11 1013.67 1013.04 1012.53 1011.66 1010.90 1010.28 1009.77 1009.18 1008.42 1007.49 1006.23 1004.90 1003.36 1001.13 998.78 997.38 995.90
1019.79 1019.86 1019.93 1019.99 1020.07 1020.29 1020.35 1020.33 1020.68 1020.66 1020.64 1020.67 1020.66 1020.44 1020.21 1019.81 1019.28 1018.46 1017.64 1016.85 1016.46 1015.98 1015.86 1015.66 1015.33 1014.85 1014.29 1013.65 1013.09 1012.44 1011.65 1010.96 1010.43 1009.62 1008.82 1007.81 1006.67 1005.37 1003.79 1001.81 999.59 997.96 996.50
1019.71 1019.73 1019.92 1020.14 1020.40 1020.55 1020.74 1020.90 1021.03 1021.09 1021.08 1021.08 1020.79 1020.67 1020.15 1019.54 1019.12 1018.60 1017.91 1017.18 1016.63 1016.37 1016.31 1016.06 1015.75 1015.43 1014.78 1014.22 1013.57 1012.87 1012.05 1011.27 1010.61 1010.03 1009.17 1008.16 1007.14 1006.08 1004.34 1002.55 1000.89 999.28 998.14
1019.56 1019.74 1019.98 1020.25 1020.66 1020.86 1020.98 1021.05 1021.30 1021.40 1021.36 1021.21 1021.07 1020.58 1020.26 1019.64 1019.27 1018.84 1018.29 1017.77 1017.14 1016.79 1016.57 1016.42 1016.16 1015.79 1015.35 1014.81 1014.21 1013.53 1012.81 1011.98 1011.22 1010.41 1009.58 1008.65 1007.63 1006.50 1004.97 1003.47 1001.95 1000.15 999.11
1019.60 1019.62 1019.70 1020.04 1020.45 1020.68 1020.90 1021.12 1021.42 1021.58 1021.38 1021.19 1020.96 1020.80 1020.43 1019.91 1019.38 1018.89 1018.60 1018.19 1017.63 1017.32 1017.16 1016.85 1016.39 1016.15 1015.83 1015.31 1014.62 1014.00 1013.22 1012.40 1011.55 1010.74 1010.06 1009.14 1008.00 1006.98 1005.72 1004.17 1002.70 1001.03 999.72
1019.25 1019.29 1019.34 1019.80 1020.21 1020.49 1020.70 1020.98 1021.21 1021.38 1021.36 1021.18 1020.93 1020.78 1020.58 1020.13 1019.73 1019.44 1019.09 1018.77 1018.33 1018.06 1017.84 1017.39 1017.00 1016.61 1016.17 1015.69 1015.10 1014.58 1013.91 1013.05 1012.29 1011.47 1010.69 1009.63 1008.45 1007.04 1005.95 1004.71 1003.36 1002.00 1000.73
1018.96 1019.01 1019.37 1019.59 1019.90 1020.26 1020.59 1020.81 1021.05 1021.13 1021.21 1021.08 1020.87 1020.81 1020.62 1020.41 1020.18 1019.93 1019.64 1019.30 1018.95 1018.78 1018.50 1018.09 1017.59 1017.18 1016.69 1016.21 1015.70 1015.05 1014.37 1013.67 1013.03 1012.26 1011.23 1010.03 1008.77 1007.55 1006.20 1005.05 1003.82 1002.61 1001.49
1019.02 1019.05 1019.25 1019.58 1019.71 1020.05 1020.52 1020.85 1020.93 1021.03 1021.18 1021.14 1021.01 1021.00 1021.02 1020.88 1020.66 1020.45 1020.16 1019.80 1019.46 1019.10 1018.73 1018.38 1017.97 1017.52 1017.16 1016.67 1016.17 1015.65 1015.09 1014.58 1014.04 1013.09 1011.77 1010.47 1009.04 1007.81 1006.77 1005.60 1004.44 1003.32 1002.24
1019.19 1019.24 1019.50 1019.79 1019.87 1020.09 1020.63 1020.90 1020.81 1020.81 1021.16 1021.27 1021.28 1021.34 1021.42 1021.40 1021.21 1020.97 1020.67 1020.29 1019.89 1019.45 1019.01 1018.67 1018.34 1017.94 1017.55 1017.14 1016.74 1016.26 1015.71 1015.26 1014.40 1013.19 1012.10 1010.79 1009.46 1008.28 1007.11 1006.18 1005.04 1004.07 1003.01
1019.27 1019.50 1019.67 1019.93 1020.09 1020.38 1020.70 1020.91 1020.88 1021.00 1021.16 1021.41 1021.60 1021.68 1021.72 1021.71 1021.53 1021.25 1020.96 1020.63 1020.34 1019.93 1019.52 1019.14 1018.82 1018.36 1017.98 1017.62 1017.13 1016.52 1015.81 1014.97 1014.17 1013.26 1011.95 1010.72 1009.81 1008.75 1007.63 1006.59 1005.67 1004.63 1003.86
1019.28 1019.37 1019.70 1020.03 1020.17 1020.28 1020.71 1021.04 1021.01 1021.07 1021.19 1021.46 1021.76 1021.83 1021.87 1021.84 1021.80 1021.57 1021.32 1021.03 1020.64 1020.28 1019.93 1019.53 1019.15 1018.71 1018.12 1017.58 1017.16 1016.46 1015.57 1014.69 1013.79 1012.89 1012.10 1010.85 1009.97 1009.04 1008.26 1007.09 1006.13 1005.33 1004.67
Thickness
5799 5794 5786 5781 5776 5768 5760 5756 5753 5752 5745 5742 5739 5735 5732 5726 5726 5721 5715 5708 5703 5699 5697 5689 5683 5679 5674 5669 5665 5663 5663 5663 5669 5675 5674 5680 5681 5681 5681 5682 5682 5687 5694
5793 5787 5781 5774 5767 5758 5752 5750 5745 5742 5738 5731 5725 5723 5722 5720 5719 5713 5706 5699 5695 5690 5685 5678 5675 5669 5663 5660 5658 5658 5657 5656 5655 5665 5661 5665 5668 5668 5667 5670 5673 5676 5682
5788 5780 5773 5764 5758 5751 5745 5741 5736 5733 5729 5722 5718 5716 5715 5714 5710 5704 5695 5689 5685 5680 5674 5669 5662 5657 5655 5654 5654 5652 5649 5649 5649 5653 5654 5650 5655 5655 5656 5657 5661 5667 5672
5780 5771 5764 5758 5752 5747 5741 5737 5732 5725 5719 5716 5713 5709 5708 5703 5695 5687 5681 5678 5674 5669 5663 5657 5653 5651 5650 5649 5646 5643 5644 5643 5642 5643 5646 5637 5638 5642 5642 5645 5651 5657 5662
5772 5764 5757 5751 5745 5738 5731 5726 5722 5719 5714 5707 5702 5699 5694 5687 5681 5676 5672 5668 5662 5657 5652 5648 5647 5645 5643 5640 5638 5639 5634 5633 5632 5632 5632 5625 5622 5626 5629 5635 5638 5643 5651
5759 5752 5746 5739 5731 5725 5721 5718 5713 5706 5699 5695 5693 5687 5680 5675 5671 5666 5660 5654 5647 5644 5642 5641 5639 5638 5638 5636 5633 5628 5622 5620 5620 5619 5616 5612 5613 5612 5618 5620 5625 5627 5638
5746 5737 5730 5726 5722 5718 5713 5707 5700 5694 5690 5685 5679 5673 5667 5662 5656 5651 5645 5639 5635 5633 5633 5633 5633 5630 5626 5624 5621 5618 5615 5611 5606 5601 5605 5610 5608 5606 5608 5610 5611 5615 5623
5735 5730 5727 5721 5712 5706 5699 5692 5686 5682 5676 5670 5665 5658 5650 5643 5635 5630 5628 5627 5627 5627 5625 5622 5619 5617 5612 5607 5605 5606 5603 5599 5595 5596 5597 5601 5599 5601 5599 5601 5605 5608 5613
5727 5718 5710 5704 5698 5692 5688 5681 5674 5668 5662 5655 5648 5641 5633 5627 5622 5621 5621 5619 5617 5616 5613 5609 5605 5604 5602 5596 5593 5590 5589 5591 5591 5591 5592 5592 5591 5592 5592 5591 5598 5599 5611
5711 5704 5699 5694 5688 5680 5672 5667 5660 5653 5645 5639 5634 5628 5624 5620 5615 5611 5606 5603 5601 5599 5597 5599 5596 5591 5588 5584 5581 5578 5578 5583 5584 5588 5588 5589 5588 5590 5590 5584 5591 5598 5604
5701 5694 5685 5677 5671 5665 5659 5653 5646 5641 5637 5631 5624 5618 5612 5606 5601 5594 5588 5586 5587 5588 5589 5592 5591 5585 5581 5579 5576 5574 5574 5578 5580 5583 5585 5586 5585 5584 5585 5585 5585 5586 5598
5683 5675 5670 5664 5660 5654 5648 5642 5637 5632 5624 5616 5609 5602 5595 5590 5585 5581 5576 5575 5576 5578 5580 5580 5578 5574 5576 5573 5572 5572 5572 5575 5578 5580 5581 5579 5578 5576 5576 5579 5584 5589 5598
5670 5665 5659 5654 5649 5642 5635 5630 5623 5618 5610 5602 5595 5589 5583 5576 5572 5570 5567 5568 5569 5569 5569 5568 5565 5563 5565 5568 5568 5566 5566 5568 5569 5570 5568 5569 5565 5566 5570 5579 5588 5599 5609
5662 5655 5648 5644 5637 5629 5623 5616 5608 5602 5595 5588 5583 5575 5569 5564 5560 5555 5554 5553 5554 5555 5556 5557 5556 5554 5554 5556 5559 5557 5559 5559 5559 5559 5560 5561 5559 5563 5569 5576 5590 5603 5613
5650 5645 5639 5633 5624 5617 5610 5603 5596 5587 5580 5574 5565 5558 5552 5548 5541 5531 5529 5531 5534 5537 5543 5542 5542 5541 5545 5547 5546 5549 5551 5553 5553 5551 5553 5555 5555 5559 5565 5576 5592 5605 5614
5640 5634 5626 5619 5612 5606 5600 5595 5586 5576 5569 5559 5552 5545 5537 5527 5520 5515 5512 5513 5518 5522 5526 5527 5528 5529 5531 5532 5534 5541 5546 5547 5547 5546 5545 5546 5548 5551 5558 5574 5592 5602 5612
5630 5624 5617 5610 5603 5596 5589 5582 5572 5565 5558 5551 5543 5535 5525 5513 5504 5498 5495 5498 5503 5510 5513 5515 5518 5520 5522 5527 5529 5533 5537 5539 5539 5542 5542 5543 5544 5547 5555 5568 5587 5598 5607
5622 5617 5609 5600 5592 5585 5578 5569 5560 5553 5546 5540 5534 5525 5517 5509 5499 5490 5485 5489 5498 5505 5507 5508 5509 5512 5516 5520 5521 5525 5530 5534 5536 5537 5538 5540 5540 5542 5550 5562 5574 5587 5592
5614 5608 5600 5591 5582 5575 5569 5562 5553 5546 5540 5535 5528 5522 5514 5507 5499 5491 5487 5490 5498 5502 5504 5503 5503 5506 5509 5510 5513 5518 5522 5526 5530 5533 5535 5536 5538 5541 5547 5556 5563 5576 5583
5604 5599 5593 5587 5578 5571 5565 5557 5548 5540 5537 5533 5528 5519 5513 5506 5502 5499 5494 5495 5498 5500 5498 5499 5502 5502 5503 5505 5509 5513 5517 5522 5526 5529 5530 5532 5535 5538 5543 5552 5557 5568 5580
5598 5593 5589 5582 5573 5567 5560 5552 5544 5539 5535 5532 5527 5520 5511 5508 5504 5500 5498 5496 5496 5495 5494 5496 5496 5498 5500 5502 5505 5508 5512 5517 5520 5523 5525 5529 5533 5539 5544 5549 5556 5563 5571
5592 5588 5582 5576 5569 5562 5554 5547 5541 5538 5533 5530 5526 5520 5512 5507 5502 5499 5496 5494 5493 5490 5490 5490 5491 5494 5496 5497 5500 5504 5508 5511 5514 5516 5520 5526 5531 5537 5544 5549 5555 5562 5568
5584 5582 5575 5568 5564 5557 5548 5541 5538 5535 5530 5527 5523 5518 5511 5506 5501 5498 5495 5494 5492 5492 5492 5492 5493 5494 5494 5495 5497 5499 5502 5503 5504 5508 5515 5521 5529 5536 5540 5546 5552 5558 5567
5575 5571 5565 5559 5556 5551 5542 5536 5534 5532 5527 5522 5519 5514 5509 5503 5499 5497 5495 5493 5492 5492 5492 5492 5492 5493 5493 5494 5494 5495 5496 5497 5501 5506 5511 5518 5525 5530 5536 5540 5548 5553 5560
5567 5561 5557 5552 5548 5542 5535 5530 5528 5526 5522 5517 5513 5509 5505 5500 5498 5496 5494 5492 5491 5491 5491 5491 5491 5491 5491 5491 5491 5493 5495 5499 5501 5504 5510 5516 5520 5526 5532 5537 5542 5548 5552
5558 5555 5550 5545 5540 5536 5529 5523 5521 5519 5516 5512 5507 5504 5500 5497 5494 5492 5491 5490 5489 5489 5489 5489 5488 5488 5489 5490 5491 5493 5496 5499 5502 5505 5507 5512 5516 5520 5523 5530 5536 5541 5544